Location: Bern�tre
(50.1974°N, 2.0915°E)
Time: 02:36:55
(UTC+00:00)

Terra - Pass Details

Date: 18 September 2020
Orbit: 701 x 703 km, 98.2° (Epoch: 24 October)

Event Time Altitude Azimuth Distance (km) Brightness Sun altitude
Exits shadow 21:58:05 33° 332° (NNW) 1,179 3.4 -33.5°
Drops below altitude 10° 22:00:46 10° 342° (NNW) 2,184 5.1 -33.7°
Sets 22:03:03 0° 344° (NNW) 3,106 6.1 -33.9°
